Flag for Central African Republic

Past Weather in Bria, Central African Republic — Yesterday and Last 2 Weeks

Now
90 °F

Passing clouds.


Feels Like: 98 °F
Forecast: 83 / 69 °F
Wind: 3 mph from North

Location: Bangui Airport
Current Time: Sep 18, 2020 at 4:01:30 pm
Latest Report: Sep 18, 2020 at 3:00 pm
Visibility: N/A
Pressure29.77 "Hg(27.86 "Hg at 593m altitude)
Humidity: 59%
Dew Point: 73 °F
Location of BriaLocation

Past Weather in Bria — Graph

°F

Bria Temperature Yesterday

Maximum temperature yesterday: 86 °F (at 10:00 am)
Minimum temperature yesterday: 73 °F (at 10:00 pm)
Average temperature yesterday: 78 °F

High & Low Weather Summary for the Past Weeks

 TemperatureHumidityPressure
High93 °F (Sep 4, 12:00 pm)100% (Sep 7, 2:00 am)29.98 "Hg (Sep 7, 2:00 am)
Low70 °F (Sep 18, 6:00 am)49% (Sep 4, 1:00 pm)29.71 "Hg (Sep 7, 2:00 pm)
Average79 °F82%29.85 "Hg
* Reported Sep 3 2:00 pm — Sep 18 2:00 pm, Bria. Weather by CustomWeather, © 2020

Note: Actual official high and low records may vary slightly from our data, if they occured in-between our weather recording intervals... More about our weather records

Bria Weather History for the Previous 24 Hours

Scroll right to see more
 ConditionsComfort  
Time TempWeatherWind HumidityBarometerVisibility
2:00 pm
Fri, Sep 18
90 °FPassing clouds.3 mph59%29.80 "HgN/A
1:00 pm88 °FScattered clouds.2 mph62%29.83 "HgN/A
12:00 pm88 °FScattered clouds.3 mph62%29.86 "HgN/A
11:00 am84 °FScattered clouds.2 mph70%29.92 "HgN/A
10:00 am82 °FPartly sunny.5 mph74%29.92 "HgN/A
9:00 am77 °FPartly sunny.5 mph89%29.95 "HgN/A
8:00 am72 °FScattered clouds.3 mph94%29.95 "HgN/A
7:00 am72 °FFog.2 mph94%29.92 "Hg1 mi
6:00 am70 °FFog.No wind100%29.89 "Hg1 mi
5:00 am72 °FFog.No wind100%29.89 "Hg1 mi
4:00 am72 °FPassing clouds.No wind100%29.86 "Hg4 mi
3:00 am72 °FFog.No wind100%29.86 "Hg2 mi
2:00 am72 °FFog.No wind100%29.86 "Hg1 mi
1:00 am73 °FFog.No wind100%29.86 "Hg1 mi
12:00 am73 °FClear.No wind100%29.89 "Hg10 mi
11:00 pm
Thu, Sep 17
73 °FPassing clouds.No wind100%29.89 "HgN/A
10:00 pm73 °FPassing clouds.No wind94%29.92 "HgN/A
9:00 pm75 °FPassing clouds.No wind94%29.89 "HgN/A
8:00 pm75 °FPassing clouds.No wind89%29.86 "HgN/A
7:00 pm77 °FPassing clouds.No wind89%29.83 "HgN/A
6:00 pm79 °FPassing clouds.2 mph84%29.80 "HgN/A
5:00 pm81 °FScattered clouds.3 mph84%29.77 "HgN/A
4:00 pm81 °FPartly sunny.5 mph84%29.77 "HgN/A
Weather by CustomWeather, © 2020

See weather overview